Location: Grand Lay
(47.3253°N, 0.9468°E)
Time: 01:08:45
(UTC+00:00)

Cosmos 2082 Rocket - Pass Details

Date: 18 January 2026
Orbit: 832 x 853 km, 71.0° (Epoch: 6 February)

Event Time Altitude Azimuth Distance (km) Brightness Sun altitude
Exits shadow 04:12:08 24° 21° (NNE) 1,681 3.9 -34.2°
Maximum altitude 04:13:42 28° 48° (NE) 1,560 3.9 -33.9°
Drops below altitude 10° 04:18:30 10° 106° (ESE) 2,473 5.4 -33.1°
Sets 04:21:19 0° 118° (ESE) 3,408 6.1 -32.6°
